EW4556 Weather Reports


Display with metric or nautical units.
time (UTC)temp
F
wind
direction
speed
MPH
gust
MPH
rain 1hr
in
rain 24hr
in
rain mn
in
humidity
%
barometer
mb
20260506101508 62 225 0.0 1.0 0.00 0.00 0.00 72 1004.4
20260506100009 62 171 0.0 0.0 0.00 0.00 0.00 71 1004.4
20260506100007 62 171 0.0 0.0 0.00 0.00 0.00 72 1004.4
20260506094505 62 238 0.0 0.0 0.00 0.00 0.00 70 1004.1
20260506093014 62 219 0.0 0.0 0.00 0.00 0.00 70 1004.3
20260506091502 62 161 0.0 0.0 0.00 0.00 0.00 69 1004.3
20260506090105 62 169 0.0 0.0 0.00 0.00 0.00 68 1004.5
20260506084634 62 222 0.0 0.0 0.00 0.00 0.00 67 1004.5
20260506083057 63 222 0.0 0.0 0.00 0.00 0.00 67 1004.5
20260506081557 63 222 0.0 0.0 0.00 0.00 0.00 65 1004.7
20260506073049 64 248 0.0 0.0 0.00 0.00 0.00 63 1004.9
20260506071546 64 200 0.0 0.0 0.00 0.00 0.00 62 1004.8
20260506061536 65 217 0.0 1.0 0.00 0.00 0.00 60 1005.3
20260506044534 66 248 0.0 0.0 0.00 0.00 0.00 55 1005.8
20260506043025 67 248 0.0 0.0 0.00 0.00 0.00 54 1005.8
20260506041522 67 219 0.0 0.0 0.00 0.00 0.00 54 1005.8
20260506040025 67 248 0.0 0.0 0.00 0.00 0.00 54 1005.8
20260506034521 66 212 0.0 0.0 0.00 0.00 0.00 53 1005.8
20260506033017 67 134 0.0 0.0 0.00 0.00 0.00 52 1005.7
20260506031513 68 194 0.0 0.0 0.00 0.00 0.00 50 1005.6
20260506030010 69 260 0.0 0.0 0.00 0.00 0.00 49 1005.6
20260506024508 69 210 0.0 1.0 0.00 0.00 0.00 49 1005.7
20260506023006 70 209 0.0 9.0 0.00 0.00 0.00 48 1005.7
20260506021600 70 210 0.0 9.0 0.00 0.00 0.00 47 1005.7
20260506020031 71 210 0.0 5.0 0.00 0.00 0.00 47 1005.9
20260506014526 71 197 0.0 9.0 0.00 0.00 0.00 46 1005.6
20260506013031 71 209 0.0 7.0 0.00 0.00 0.00 46 1005.4
20260506011524 71 242 0.0 3.0 0.00 0.00 0.00 46 1005.2
20260506010021 71 200 0.0 2.0 0.00 0.00 0.00 46 1005.0
20260506004549 71 216 0.0 7.0 0.00 0.00 0.00 47 1004.8
20260506003047 72 192 0.0 5.0 0.00 0.00 0.00 45 1004.7
20260506001514 72 199 0.0 1.0 0.00 0.00 0.00 44 1004.6
20260506000014 73 207 0.0 2.0 0.00 0.00 0.00 43 1004.5
20260505234541 73 174 0.0 2.0 0.00 0.00 0.00 42 1004.5
20260505233039 74 306 0.0 9.0 0.00 0.00 0.00 41 1004.4
20260505231512 74 214 0.0 7.0 0.00 0.00 0.00 40 1004.3
20260505230011 74 238 1.0 17.0 0.00 0.00 0.00 41 1004.2
20260505224505 74 217 0.0 8.0 0.00 0.00 0.00 41 1004.2
20260505223003 74 277 0.0 1.0 0.00 0.00 0.00 43 1004.1
20260505221604 75 247 0.0 2.0 0.00 0.00 0.00 39 1003.9
20260505220100 76 233 0.0 5.0 0.00 0.00 0.00 38 1003.9
20260505211532 76 164 0.0 7.0 0.00 0.00 0.00 35 1003.3
20260505210029 76 217 0.0 12.0 0.00 0.00 0.00 35 1003.4
20260505204554 77 175 2.0 11.0 0.00 0.00 0.00 36 1003.3
20260505203110 78 263 1.0 10.0 0.00 0.00 0.00 33 1003.0
20260505201549 80 211 2.0 9.0 0.00 0.00 0.00 34 1003.1
20260505200144 81 236 2.0 16.0 0.00 0.00 0.00 33 1003.1
20260505194540 80 219 1.0 10.0 0.00 0.00 0.00 33 1003.4
20260505190035 80 227 1.0 12.0 0.00 0.00 0.00 37 1004.0
20260505184559 81 241 1.0 17.0 0.00 0.00 0.00 35 1004.2
20260505183056 79 221 0.0 18.0 0.00 0.00 0.00 36 1004.3
20260505181530 80 178 0.0 16.0 0.00 0.00 0.00 33 1004.5
20260505180024 79 201 1.0 12.0 0.00 0.00 0.00 37 1004.5
20260505174555 79 169 4.0 15.0 0.00 0.00 0.00 37 1004.7
20260505173057 80 257 3.0 11.0 0.00 0.00 0.00 37 1004.6
20260505171550 79 179 1.0 17.0 0.00 0.00 0.00 35 1004.8
20260505170104 79 207 1.0 10.0 0.00 0.00 0.00 39 1004.8
20260505164547 79 264 0.0 11.0 0.00 0.00 0.00 42 1005.1
20260505163043 78 198 1.0 12.0 0.00 0.00 0.00 37 1005.1
20260505161535 77 205 0.0 15.0 0.00 0.00 0.00 44 1005.4
20260505153027 75 216 0.0 3.0 0.00 0.00 0.00 49 1006.0
20260505151524 75 247 0.0 8.0 0.00 0.00 0.00 46 1006.1
20260505124550 64 146 0.0 1.0 0.00 0.00 0.00 67 1006.6
20260505123045 63 171 0.0 1.0 0.00 0.00 0.00 72 1006.8
20260505121543 62 199 0.0 3.0 0.00 0.00 0.00 74 1006.8
20260505120039 59 254 0.0 1.0 0.00 0.00 0.00 76 1006.8
20260505114538 57 205 0.0 0.0 0.00 0.00 0.00 80 1006.8
20260505113032 55 185 0.0 0.0 0.00 0.00 0.00 82 1006.8
20260505111530 53 185 0.0 2.0 0.00 0.00 0.00 86 1006.8